LROP Weather Reports


Display with metric or nautical units.
time (UTC)temp
F
wind
direction
speed
MPH
gust
MPH
rain 1hr
in
rain 24hr
in
rain mn
in
humidity
%
barometer
mb
20260509144802 59 30 10.0 0.0 0.00 0.00 0.00 100 1014.0
20260509143301 59 30 10.0 0.0 0.00 0.00 0.00 100 1014.0
20260509140302 59 30 10.0 0.0 0.00 0.00 0.00 94 1014.0
20260509134802 59 30 7.0 0.0 0.00 0.00 0.00 94 1014.0
20260509133302 59 30 7.0 0.0 0.00 0.00 0.00 94 1014.0
20260509131802 61 40 10.0 0.0 0.00 0.00 0.00 88 1014.0
20260509130301 61 40 10.0 0.0 0.00 0.00 0.00 88 1014.0
20260509124803 63 40 10.0 0.0 0.00 0.00 0.00 77 1014.0
20260509123302 63 40 10.0 0.0 0.00 0.00 0.00 77 1014.0
20260509121802 63 50 13.0 0.0 0.00 0.00 0.00 77 1014.0
20260509120302 63 50 13.0 0.0 0.00 0.00 0.00 77 1014.0
20260509114802 64 50 14.0 0.0 0.00 0.00 0.00 73 1014.0
20260509113301 64 50 14.0 0.0 0.00 0.00 0.00 73 1014.0
20260509111802 64 40 14.0 0.0 0.00 0.00 0.00 73 1014.0
20260509110302 64 40 14.0 0.0 0.00 0.00 0.00 73 1014.0
20260509104801 63 50 15.0 0.0 0.00 0.00 0.00 77 1014.0
20260509103302 63 50 15.0 0.0 0.00 0.00 0.00 77 1014.0
20260509101802 63 50 15.0 0.0 0.00 0.00 0.00 77 1014.0
20260509100302 63 50 15.0 0.0 0.00 0.00 0.00 77 1014.0
20260509094802 63 50 14.0 0.0 0.00 0.00 0.00 83 1014.0
20260509093301 63 50 14.0 0.0 0.00 0.00 0.00 83 1014.0
20260509091915 63 60 17.0 0.0 0.00 0.00 0.00 83 1015.0
20260509090302 63 60 17.0 0.0 0.00 0.00 0.00 83 1015.0
20260509084801 63 80 15.0 0.0 0.00 0.00 0.00 83 1015.0
20260509083302 63 80 15.0 0.0 0.00 0.00 0.00 83 1015.0
20260509081834 61 50 14.0 0.0 0.00 0.00 0.00 88 1015.0
20260509080302 61 50 14.0 0.0 0.00 0.00 0.00 88 1015.0
20260509074802 61 70 14.0 0.0 0.00 0.00 0.00 88 1014.0
20260509073302 61 70 14.0 0.0 0.00 0.00 0.00 88 1014.0
20260509071802 59 80 10.0 0.0 0.00 0.00 0.00 94 1015.0
20260509070302 59 80 10.0 0.0 0.00 0.00 0.00 94 1015.0
20260509064802 57 90 9.0 0.0 0.00 0.00 0.00 100 1015.0
20260509063302 57 90 9.0 0.0 0.00 0.00 0.00 100 1015.0
20260509061802 57 90 10.0 0.0 0.00 0.00 0.00 94 1014.0
20260509060301 57 90 10.0 0.0 0.00 0.00 0.00 94 1014.0
20260509054802 59 90 9.0 0.0 0.00 0.00 0.00 94 1014.0
20260509053302 59 90 9.0 0.0 0.00 0.00 0.00 94 1014.0
20260509051802 59 80 9.0 0.0 0.00 0.00 0.00 94 1014.0
20260509050301 59 80 9.0 0.0 0.00 0.00 0.00 94 1014.0
20260509044802 57 50 10.0 0.0 0.00 0.00 0.00 94 1014.0
20260509043302 57 50 10.0 0.0 0.00 0.00 0.00 94 1014.0
20260509041802 57 50 7.0 0.0 0.00 0.00 0.00 100 1014.0
20260509040302 57 50 7.0 0.0 0.00 0.00 0.00 100 1014.0
20260509034802 57 90 6.0 0.0 0.00 0.00 0.00 94 1014.0
20260509033301 57 90 6.0 0.0 0.00 0.00 0.00 94 1014.0
20260509031802 57 80 7.0 0.0 0.00 0.00 0.00 94 1014.0
20260509030302 57 80 7.0 0.0 0.00 0.00 0.00 94 1014.0
20260509024801 57 80 6.0 0.0 0.00 0.00 0.00 94 1014.0
20260509023301 57 80 6.0 0.0 0.00 0.00 0.00 94 1014.0
20260509021802 57 90 6.0 0.0 0.00 0.00 0.00 94 1014.0
20260509020302 57 90 6.0 0.0 0.00 0.00 0.00 94 1014.0
20260509014802 57 80 7.0 0.0 0.00 0.00 0.00 100 1014.0
20260509013302 57 80 7.0 0.0 0.00 0.00 0.00 100 1014.0
20260509011802 57 70 11.0 0.0 0.00 0.00 0.00 100 1014.0
20260509010302 57 70 11.0 0.0 0.00 0.00 0.00 100 1014.0
20260509004802 59 50 7.0 0.0 0.00 0.00 0.00 94 1014.0
20260509003302 59 50 7.0 0.0 0.00 0.00 0.00 94 1014.0
20260509001802 59 100 3.0 0.0 0.00 0.00 0.00 94 1014.0
20260509000303 59 100 3.0 0.0 0.00 0.00 0.00 94 1014.0
20260508234802 59 90 5.0 0.0 0.00 0.00 0.00 94 1014.0
20260508233302 59 90 5.0 0.0 0.00 0.00 0.00 94 1014.0
20260508231802 61 90 7.0 0.0 0.00 0.00 0.00 94 1015.0
20260508230302 61 90 7.0 0.0 0.00 0.00 0.00 94 1015.0
20260508224801 61 80 7.0 0.0 0.00 0.00 0.00 94 1015.0
20260508223302 61 80 7.0 0.0 0.00 0.00 0.00 94 1015.0
20260508221802 63 90 5.0 0.0 0.00 0.00 0.00 88 1015.0
20260508220302 63 90 5.0 0.0 0.00 0.00 0.00 88 1015.0
20260508214801 63 80 7.0 0.0 0.00 0.00 0.00 94 1015.0
20260508213302 63 80 7.0 0.0 0.00 0.00 0.00 94 1015.0
20260508211801 64 60 8.0 0.0 0.00 0.00 0.00 88 1015.0
20260508210302 64 60 8.0 0.0 0.00 0.00 0.00 88 1015.0
20260508204802 64 50 14.0 0.0 0.00 0.00 0.00 88 1015.0
20260508203302 64 50 14.0 0.0 0.00 0.00 0.00 88 1015.0
20260508201802 66 30 10.0 0.0 0.00 0.00 0.00 78 1014.0
20260508200302 66 30 10.0 0.0 0.00 0.00 0.00 78 1014.0
20260508194802 68 30 7.0 0.0 0.00 0.00 0.00 73 1014.0
20260508193302 68 30 7.0 0.0 0.00 0.00 0.00 73 1014.0
20260508191802 70 110 7.0 0.0 0.00 0.00 0.00 64 1014.0
20260508190302 70 110 7.0 0.0 0.00 0.00 0.00 64 1014.0
20260508184802 68 120 5.0 0.0 0.00 0.00 0.00 73 1013.0
20260508183302 68 120 5.0 0.0 0.00 0.00 0.00 73 1013.0
20260508181805 68 130 7.0 0.0 0.00 0.00 0.00 73 1013.0
20260508180302 68 130 7.0 0.0 0.00 0.00 0.00 73 1013.0
20260508174803 72 120 8.0 0.0 0.00 0.00 0.00 61 1013.0
20260508173302 72 120 8.0 0.0 0.00 0.00 0.00 61 1013.0
20260508171802 72 130 7.0 0.0 0.00 0.00 0.00 61 1013.0
20260508170302 72 130 7.0 0.0 0.00 0.00 0.00 61 1013.0
20260508164802 73 150 7.0 0.0 0.00 0.00 0.00 57 1012.0
20260508163303 73 150 7.0 0.0 0.00 0.00 0.00 57 1012.0
20260508161802 77 140 7.0 0.0 0.00 0.00 0.00 44 1013.0
20260508160302 77 140 7.0 0.0 0.00 0.00 0.00 44 1013.0
20260508154802 77 190 8.0 0.0 0.00 0.00 0.00 44 1013.0
20260508153302 77 190 8.0 0.0 0.00 0.00 0.00 44 1013.0
20260508151802 79 150 10.0 0.0 0.00 0.00 0.00 45 1013.0
20260508150302 79 150 10.0 0.0 0.00 0.00 0.00 45 1013.0